Regional Weather Roundup
Issued by NWS

Home | Current Version | Previous Version | Graphics & Text | Print | Product List | Glossary On
Versions: 1 2 3 4 5 6 7 8 9 10 11 12 13 14 15 16 17 18 19 20 21 22 23 24 25 26 27 28 29 30 31 32 33 34 35 36 37 38 39 40 41 42 43 44 45 46 47 48 49 50
000
ASUS43 KFSD 251310
RWRSD

WEATHER ROUNDUP FOR SOUTH DAKOTA
NATIONAL WEATHER SERVICE SIOUX FALLS SD
800 AM CDT FRI JUL 25 2014

NOTE: "FAIR" INDICATES FEW OR NO CLOUDS BELOW 12,000 FEET WITH NO
SIGNIFICANT WEATHER AND/OR OBSTRUCTIONS TO VISIBILITY.


SDZ001>005-009-010-012>017-251400-
NORTHWEST AND NORTH CENTRAL SOUTH DAKOTA

CITY           SKY/WX    TMP DP  RH WIND       PRES   REMARKS
BUFFALO          N/A     57  45  64 W5        29.91R
FAITH            N/A     63  47  55 N15       29.91R
MOBRIDGE       PTSUNNY   67  65  93 NW13      29.80R
$$

SDZ012>016-024>037-041>051-057-063-072>074-251400-
SOUTHWEST AND SOUTH CENTRAL SOUTH DAKOTA

CITY           SKY/WX    TMP DP  RH WIND       PRES   REMARKS
RAPID CTY ARPT SUNNY     63  40  42 NW12      29.98R
PIERRE         MOSUNNY   71  66  84 N18G24    29.80R
CUSTER         SUNNY     62  43  49 N6        30.09R
ELLSWORTH AFB  SUNNY     65  38  37 NW13      29.98R
PHILIP         CLOUDY    68  55  63 NW15      29.90R
PINE RIDGE     SUNNY     64  44  48 NW7       29.99R
WINNER         FAIR      72  64  76 NW9       29.79R
$$

SDZ004>011-016>023-039-040-251400-
NORTHEAST SOUTH DAKOTA

CITY           SKY/WX    TMP DP  RH WIND       PRES   REMARKS
ABERDEEN       PTSUNNY   68  65  90 CALM      29.74R
WATERTOWN      MOSUNNY   67  63  87 S12G21    29.75R
SISSETON         N/A     66  65  96 S5        29.74R
$$

SDZ017-020-022-023-036>040-048>070-251400-
SOUTHEAST SOUTH DAKOTA

CITY           SKY/WX    TMP DP  RH WIND       PRES   REMARKS
SIOUX FALLS    MOSUNNY   68  62  81 SE17G28   29.77F
HURON          MOSUNNY   69  62  78 S8        29.74F
CHAMBERLAIN    SUNNY     71  64  80 NE5       29.76S
MITCHELL       MOSUNNY   68  63  84 SE8       29.75R
YANKTON        SUNNY     66  63  88 E15G21    29.73F
$$

ABBREVIATIONS USED IN REMARKS
   TC - TEMPERATURE IN CELSIUS
  WCI - WIND CHILL INDEX
   HX - HEAT INDEX
  VSB - VISIBILITY




USA.gov is the U.S. government's official web portal to all federal, state and local government web resources and services.